Precipitable_Water
0.86 0.81 0.80 0.81 0.86 0.91 0.93 0.92 0.89 0.89 0.85 0.77 0.73 0.71 0.67 0.66 0.65 0.65 0.66 0.67 0.70 0.69 0.71 0.73 0.73 0.73 0.74 0.77 0.78 0.79 0.79 0.78 0.78 0.78 0.78 0.78 0.81 0.81 0.78 0.76 0.73 0.72 0.69 0.64 0.60 0.56 0.53 0.51 0.51 0.51 0.51 0.48 0.48 0.47 0.46 0.45 0.45 0.44 0.46 0.46 0.46 0.49 0.48 0.46 0.43 0.44 0.50 0.55 0.54 0.53 0.55 0.57 0.52 0.53 0.52 0.53 0.53 0.53 0.52 0.52 0.52 0.50 0.49 0.48 0.48
0.90 0.90 0.93 0.96 0.97 0.99 0.99 0.98 0.92 0.91 0.84 0.77 0.73 0.73 0.69 0.66 0.65 0.66 0.66 0.70 0.74 0.75 0.78 0.81 0.82 0.81 0.82 0.82 0.83 0.85 0.86 0.86 0.87 0.86 0.86 0.87 0.88 0.89 0.88 0.85 0.81 0.78 0.78 0.74 0.71 0.68 0.64 0.60 0.58 0.57 0.57 0.54 0.53 0.50 0.50 0.49 0.48 0.47 0.48 0.50 0.52 0.54 0.59 0.56 0.55 0.53 0.51 0.58 0.58 0.61 0.61 0.63 0.57 0.60 0.58 0.57 0.56 0.57 0.55 0.54 0.54 0.52 0.50 0.49 0.48
0.94 0.96 0.96 0.95 0.95 0.96 0.96 0.93 0.89 0.86 0.81 0.78 0.75 0.76 0.72 0.69 0.70 0.71 0.74 0.77 0.81 0.83 0.84 0.86 0.86 0.84 0.84 0.85 0.87 0.90 0.91 0.92 0.92 0.92 0.93 0.93 0.92 0.93 0.93 0.91 0.90 0.86 0.83 0.82 0.79 0.77 0.74 0.72 0.71 0.69 0.67 0.63 0.62 0.59 0.57 0.54 0.53 0.51 0.52 0.57 0.59 0.61 0.63 0.65 0.61 0.58 0.56 0.57 0.61 0.60 0.61 0.64 0.62 0.62 0.63 0.63 0.62 0.61 0.57 0.57 0.55 0.54 0.52 0.50 0.47
0.94 0.91 0.90 0.92 0.95 0.95 0.94 0.93 0.88 0.83 0.77 0.79 0.80 0.83 0.77 0.75 0.77 0.78 0.79 0.83 0.85 0.88 0.91 0.90 0.87 0.87 0.88 0.90 0.92 0.92 0.94 0.97 0.97 0.97 0.97 0.98 0.97 0.96 0.96 0.96 0.95 0.94 0.92 0.91 0.89 0.85 0.82 0.81 0.81 0.79 0.76 0.72 0.70 0.68 0.65 0.63 0.61 0.59 0.59 0.63 0.65 0.67 0.69 0.70 0.69 0.65 0.63 0.59 0.62 0.61 0.63 0.63 0.63 0.63 0.63 0.62 0.61 0.59 0.58 0.57 0.57 0.54 0.52 0.51 0.47
0.92 0.90 0.89 0.90 0.93 0.94 0.95 0.93 0.87 0.82 0.78 0.80 0.85 0.89 0.82 0.77 0.76 0.76 0.79 0.82 0.86 0.89 0.91 0.92 0.87 0.83 0.84 0.85 0.86 0.88 0.91 0.95 0.95 0.97 1.01 1.02 1.02 1.01 1.00 0.99 0.99 1.00 0.99 0.97 0.97 0.94 0.92 0.88 0.87 0.85 0.84 0.81 0.80 0.78 0.74 0.70 0.69 0.69 0.68 0.70 0.70 0.72 0.73 0.73 0.72 0.72 0.68 0.65 0.66 0.68 0.69 0.67 0.65 0.65 0.64 0.61 0.60 0.60 0.60 0.57 0.54 0.53 0.52 0.51 0.48
0.91 0.91 0.93 0.92 0.93 0.95 0.96 0.92 0.87 0.83 0.78 0.77 0.83 0.88 0.88 0.85 0.81 0.81 0.81 0.81 0.85 0.88 0.90 0.90 0.86 0.87 0.89 0.88 0.89 0.90 0.92 0.93 0.95 0.97 0.98 1.00 1.01 1.00 1.00 1.00 1.00 1.00 1.01 1.00 0.98 0.98 0.95 0.95 0.97 0.94 0.89 0.86 0.84 0.84 0.82 0.78 0.77 0.76 0.75 0.74 0.75 0.78 0.77 0.76 0.76 0.74 0.72 0.69 0.69 0.68 0.70 0.67 0.66 0.65 0.64 0.63 0.59 0.56 0.55 0.54 0.54 0.53 0.50 0.47 0.46
0.89 0.90 0.92 0.93 0.93 0.95 0.95 0.94 0.90 0.84 0.80 0.78 0.81 0.87 0.90 0.91 0.89 0.85 0.84 0.83 0.85 0.87 0.88 0.87 0.88 0.86 0.87 0.88 0.88 0.91 0.94 0.98 0.99 1.00 1.00 0.99 1.00 0.99 0.99 1.00 0.99 1.00 1.00 0.99 1.00 1.00 1.00 1.00 1.01 0.99 0.96 0.95 0.91 0.88 0.86 0.83 0.81 0.78 0.77 0.76 0.76 0.76 0.76 0.76 0.75 0.74 0.73 0.71 0.72 0.72 0.69 0.70 0.67 0.62 0.64 0.65 0.63 0.59 0.54 0.50 0.48 0.49 0.49 0.45 0.41
0.91 0.91 0.92 0.93 0.94 0.95 0.97 0.97 0.93 0.88 0.84 0.82 0.83 0.86 0.90 0.92 0.93 0.92 0.91 0.89 0.90 0.90 0.89 0.89 0.90 0.89 0.89 0.90 0.93 0.95 0.97 0.98 0.99 0.99 0.99 1.00 1.00 0.98 0.97 0.97 0.98 0.99 1.00 1.00 1.00 1.01 1.03 1.03 1.04 1.04 1.03 1.00 0.98 0.96 0.94 0.90 0.87 0.83 0.82 0.80 0.78 0.76 0.75 0.75 0.75 0.73 0.71 0.71 0.70 0.68 0.68 0.66 0.66 0.67 0.66 0.65 0.60 0.58 0.57 0.51 0.44 0.42 0.41 0.41 0.39
0.90 0.91 0.92 0.93 0.94 0.96 0.97 0.97 0.96 0.94 0.92 0.92 0.90 0.89 0.90 0.91 0.93 0.92 0.92 0.92 0.94 0.94 0.94 0.93 0.91 0.90 0.91 0.93 0.95 0.97 0.96 0.95 0.95 0.95 0.95 0.96 0.97 0.96 0.97 0.99 1.01 1.01 1.01 1.02 1.03 1.03 1.02 1.00 1.01 1.03 1.06 1.03 1.01 1.00 0.98 0.96 0.90 0.86 0.86 0.86 0.83 0.80 0.77 0.76 0.74 0.71 0.70 0.69 0.67 0.66 0.64 0.63 0.62 0.60 0.57 0.55 0.54 0.53 0.54 0.50 0.44 0.42 0.38 0.34 0.35
0.90 0.90 0.91 0.92 0.94 0.94 0.94 0.94 0.94 0.94 0.94 0.92 0.91 0.91 0.89 0.89 0.90 0.92 0.93 0.95 0.95 0.95 0.93 0.92 0.90 0.90 0.93 0.96 0.97 0.96 0.94 0.95 0.96 0.96 0.95 0.94 0.95 0.97 0.97 0.97 0.96 0.96 0.97 0.98 1.00 1.02 1.02 1.02 1.02 1.01 1.00 1.00 1.00 0.98 0.96 0.95 0.95 0.92 0.89 0.86 0.81 0.78 0.76 0.75 0.72 0.69 0.67 0.64 0.63 0.63 0.61 0.59 0.60 0.57 0.53 0.53 0.54 0.52 0.46 0.41 0.37 0.36 0.34 0.31 0.31
0.88 0.90 0.90 0.92 0.93 0.93 0.92 0.91 0.91 0.90 0.93 0.94 0.94 0.92 0.91 0.92 0.94 0.95 0.97 0.98 0.97 0.96 0.95 0.94 0.94 0.94 0.92 0.92 0.91 0.91 0.92 0.93 0.92 0.91 0.90 0.90 0.90 0.90 0.89 0.89 0.89 0.88 0.88 0.89 0.90 0.95 0.98 0.98 0.98 0.98 0.96 0.96 0.97 0.98 0.97 0.94 0.92 0.90 0.89 0.85 0.83 0.82 0.77 0.74 0.73 0.72 0.67 0.65 0.64 0.62 0.59 0.58 0.58 0.57 0.53 0.50 0.49 0.44 0.39 0.37 0.34 0.32 0.29 0.26 0.24
0.85 0.87 0.90 0.92 0.92 0.91 0.91 0.90 0.91 0.93 0.94 0.96 0.95 0.93 0.94 0.93 0.92 0.93 0.94 0.94 0.95 0.96 0.96 0.94 0.91 0.89 0.88 0.88 0.86 0.85 0.86 0.88 0.88 0.87 0.85 0.83 0.81 0.80 0.79 0.77 0.75 0.74 0.74 0.75 0.78 0.83 0.89 0.93 0.96 0.96 0.94 0.93 0.95 0.94 0.94 0.95 0.94 0.90 0.88 0.86 0.84 0.82 0.80 0.77 0.73 0.70 0.67 0.62 0.60 0.58 0.57 0.55 0.54 0.53 0.50 0.47 0.43 0.39 0.38 0.35 0.33 0.30 0.27 0.26 0.26
0.77 0.78 0.80 0.82 0.84 0.88 0.90 0.91 0.92 0.94 0.94 0.94 0.93 0.93 0.90 0.87 0.91 0.90 0.90 0.91 0.89 0.84 0.82 0.80 0.77 0.76 0.75 0.72 0.70 0.73 0.76 0.80 0.82 0.83 0.80 0.78 0.76 0.75 0.73 0.70 0.67 0.66 0.66 0.66 0.66 0.67 0.69 0.74 0.80 0.85 0.87 0.88 0.88 0.87 0.84 0.83 0.80 0.79 0.79 0.79 0.79 0.79 0.77 0.75 0.74 0.72 0.68 0.63 0.60 0.58 0.57 0.55 0.50 0.49 0.48 0.44 0.41 0.36 0.35 0.32 0.31 0.30 0.29 0.27 0.27
0.62 0.62 0.64 0.68 0.73 0.76 0.78 0.79 0.81 0.82 0.83 0.83 0.84 0.81 0.80 0.79 0.79 0.76 0.73 0.71 0.68 0.67 0.66 0.65 0.64 0.62 0.61 0.59 0.59 0.61 0.64 0.69 0.72 0.76 0.77 0.74 0.72 0.70 0.67 0.65 0.63 0.61 0.60 0.61 0.62 0.62 0.63 0.63 0.64 0.65 0.70 0.72 0.74 0.73 0.71 0.70 0.69 0.68 0.68 0.69 0.69 0.69 0.68 0.68 0.66 0.65 0.64 0.61 0.58 0.53 0.54 0.52 0.47 0.45 0.43 0.40 0.36 0.33 0.31 0.30 0.31 0.29 0.29 0.28 0.31
0.58 0.58 0.58 0.58 0.59 0.62 0.65 0.64 0.60 0.60 0.62 0.65 0.66 0.66 0.65 0.65 0.64 0.63 0.62 0.60 0.59 0.58 0.58 0.57 0.57 0.56 0.54 0.52 0.51 0.50 0.51 0.54 0.59 0.63 0.67 0.68 0.68 0.68 0.66 0.62 0.57 0.53 0.52 0.53 0.54 0.56 0.58 0.60 0.61 0.61 0.63 0.63 0.64 0.64 0.63 0.63 0.64 0.63 0.63 0.63 0.64 0.65 0.65 0.64 0.63 0.61 0.58 0.56 0.53 0.50 0.49 0.47 0.43 0.40 0.38 0.38 0.36 0.34 0.33 0.31 0.31 0.31 0.32 0.34 0.33
0.60 0.59 0.58 0.58 0.57 0.58 0.57 0.56 0.55 0.55 0.56 0.56 0.56 0.56 0.56 0.57 0.56 0.58 0.58 0.57 0.57 0.56 0.55 0.54 0.51 0.50 0.50 0.49 0.47 0.46 0.47 0.48 0.50 0.52 0.56 0.60 0.61 0.61 0.59 0.56 0.53 0.51 0.51 0.51 0.50 0.51 0.53 0.54 0.55 0.55 0.57 0.58 0.58 0.59 0.60 0.60 0.59 0.58 0.57 0.58 0.59 0.60 0.59 0.59 0.58 0.56 0.54 0.51 0.49 0.47 0.46 0.43 0.39 0.37 0.37 0.36 0.35 0.35 0.35 0.34 0.34 0.32 0.30 0.28 0.27
0.59 0.59 0.59 0.60 0.62 0.62 0.60 0.58 0.57 0.57 0.58 0.58 0.57 0.57 0.57 0.57 0.57 0.57 0.55 0.54 0.54 0.53 0.53 0.53 0.53 0.52 0.50 0.49 0.47 0.47 0.47 0.48 0.49 0.51 0.53 0.55 0.56 0.55 0.54 0.52 0.52 0.51 0.50 0.50 0.50 0.50 0.51 0.52 0.51 0.51 0.51 0.51 0.52 0.53 0.54 0.55 0.54 0.53 0.54 0.54 0.54 0.53 0.53 0.53 0.52 0.50 0.49 0.47 0.46 0.44 0.42 0.39 0.36 0.36 0.34 0.34 0.33 0.33 0.32 0.30 0.29 0.30 0.27 0.25 0.26
0.58 0.58 0.58 0.59 0.62 0.63 0.63 0.63 0.62 0.61 0.61 0.60 0.59 0.60 0.60 0.60 0.59 0.60 0.57 0.55 0.53 0.53 0.54 0.53 0.53 0.53 0.52 0.50 0.49 0.47 0.47 0.49 0.50 0.51 0.53 0.54 0.55 0.55 0.54 0.52 0.51 0.49 0.48 0.49 0.49 0.48 0.48 0.48 0.48 0.48 0.47 0.47 0.48 0.50 0.50 0.51 0.51 0.51 0.51 0.50 0.49 0.47 0.47 0.48 0.48 0.46 0.45 0.44 0.43 0.40 0.37 0.36 0.35 0.34 0.33 0.32 0.32 0.32 0.30 0.26 0.29 0.29 0.26 0.26 0.24
0.56 0.57 0.58 0.59 0.60 0.61 0.61 0.62 0.61 0.61 0.60 0.61 0.62 0.63 0.64 0.63 0.63 0.62 0.60 0.59 0.57 0.57 0.56 0.54 0.54 0.53 0.53 0.51 0.50 0.50 0.50 0.51 0.52 0.53 0.55 0.56 0.57 0.57 0.55 0.53 0.51 0.49 0.48 0.47 0.49 0.49 0.48 0.48 0.48 0.48 0.47 0.47 0.48 0.49 0.50 0.51 0.51 0.51 0.49 0.46 0.44 0.43 0.44 0.44 0.43 0.42 0.42 0.41 0.40 0.38 0.37 0.36 0.35 0.34 0.34 0.32 0.32 0.32 0.33 0.32 0.31 0.28 0.26 0.25 0.25
0.59 0.60 0.59 0.59 0.59 0.59 0.60 0.59 0.61 0.61 0.58 0.57 0.57 0.58 0.62 0.61 0.61 0.60 0.60 0.59 0.57 0.56 0.55 0.53 0.51 0.51 0.53 0.53 0.53 0.53 0.53 0.54 0.55 0.55 0.55 0.56 0.57 0.58 0.57 0.54 0.51 0.49 0.48 0.48 0.47 0.49 0.50 0.49 0.50 0.50 0.50 0.49 0.49 0.48 0.47 0.47 0.47 0.46 0.46 0.44 0.42 0.40 0.43 0.43 0.42 0.40 0.39 0.38 0.37 0.36 0.34 0.34 0.34 0.34 0.33 0.33 0.33 0.33 0.33 0.33 0.32 0.30 0.28 0.26 0.26
0.58 0.57 0.58 0.59 0.58 0.59 0.60 0.59 0.58 0.59 0.60 0.59 0.61 0.62 0.62 0.61 0.61 0.61 0.60 0.60 0.58 0.55 0.53 0.51 0.50 0.50 0.51 0.52 0.53 0.54 0.55 0.55 0.56 0.57 0.57 0.58 0.58 0.59 0.59 0.56 0.55 0.52 0.50 0.49 0.49 0.48 0.49 0.49 0.49 0.49 0.49 0.49 0.49 0.49 0.49 0.49 0.49 0.48 0.47 0.44 0.43 0.42 0.42 0.41 0.40 0.39 0.38 0.35 0.33 0.33 0.32 0.32 0.32 0.32 0.32 0.32 0.32 0.33 0.34 0.34 0.34 0.33 0.31 0.28 0.27
0.55 0.55 0.55 0.55 0.56 0.56 0.56 0.57 0.60 0.60 0.62 0.62 0.61 0.61 0.63 0.62 0.60 0.58 0.56 0.55 0.54 0.52 0.51 0.49 0.47 0.47 0.48 0.50 0.51 0.52 0.53 0.53 0.54 0.55 0.56 0.57 0.58 0.59 0.58 0.57 0.56 0.54 0.51 0.50 0.49 0.48 0.48 0.48 0.47 0.47 0.48 0.47 0.47 0.47 0.47 0.47 0.47 0.47 0.45 0.45 0.44 0.42 0.41 0.40 0.39 0.36 0.34 0.32 0.31 0.30 0.30 0.30 0.30 0.30 0.31 0.32 0.33 0.34 0.34 0.34 0.34 0.34 0.34 0.33 0.31
0.51 0.51 0.51 0.52 0.53 0.54 0.55 0.54 0.55 0.55 0.56 0.57 0.58 0.57 0.59 0.58 0.58 0.57 0.55 0.53 0.52 0.50 0.48 0.47 0.45 0.46 0.47 0.48 0.50 0.51 0.52 0.52 0.52 0.52 0.53 0.54 0.56 0.56 0.56 0.55 0.55 0.55 0.52 0.49 0.49 0.48 0.48 0.47 0.47 0.47 0.47 0.47 0.47 0.47 0.46 0.45 0.45 0.45 0.44 0.42 0.41 0.40 0.39 0.36 0.34 0.33 0.31 0.30 0.29 0.28 0.29 0.30 0.29 0.30 0.31 0.31 0.32 0.33 0.33 0.33 0.33 0.34 0.34 0.35 0.35
0.49 0.48 0.48 0.48 0.50 0.51 0.51 0.52 0.54 0.55 0.55 0.54 0.54 0.53 0.53 0.54 0.55 0.55 0.54 0.52 0.50 0.47 0.46 0.45 0.45 0.45 0.45 0.47 0.49 0.50 0.51 0.51 0.51 0.51 0.52 0.51 0.51 0.50 0.51 0.52 0.54 0.54 0.52 0.49 0.48 0.46 0.45 0.46 0.46 0.45 0.45 0.44 0.44 0.44 0.44 0.44 0.43 0.42 0.41 0.39 0.38 0.36 0.35 0.33 0.32 0.31 0.30 0.29 0.29 0.28 0.29 0.30 0.31 0.31 0.31 0.32 0.32 0.33 0.33 0.34 0.34 0.35 0.35 0.35 0.36
0.47 0.46 0.46 0.47 0.47 0.49 0.50 0.51 0.52 0.53 0.55 0.54 0.53 0.53 0.53 0.53 0.51 0.51 0.51 0.50 0.48 0.46 0.46 0.45 0.44 0.44 0.44 0.43 0.45 0.47 0.49 0.50 0.50 0.50 0.49 0.49 0.49 0.49 0.50 0.51 0.51 0.50 0.48 0.47 0.47 0.46 0.46 0.45 0.44 0.43 0.42 0.42 0.42 0.42 0.42 0.41 0.40 0.39 0.37 0.36 0.35 0.34 0.33 0.32 0.31 0.30 0.29 0.28 0.28 0.29 0.29 0.30 0.31 0.32 0.33 0.33 0.34 0.34 0.33 0.33 0.34 0.35 0.36 0.37 0.38
0.46 0.46 0.46 0.46 0.46 0.48 0.48 0.49 0.51 0.52 0.53 0.54 0.52 0.51 0.51 0.51 0.51 0.51 0.50 0.49 0.48 0.46 0.45 0.44 0.44 0.43 0.43 0.43 0.43 0.44 0.46 0.48 0.48 0.49 0.48 0.48 0.48 0.48 0.49 0.49 0.48 0.48 0.48 0.47 0.46 0.45 0.44 0.43 0.43 0.42 0.41 0.41 0.41 0.40 0.38 0.38 0.36 0.35 0.33 0.33 0.34 0.33 0.32 0.32 0.31 0.30 0.29 0.29 0.29 0.29 0.30 0.32 0.32 0.33 0.34 0.33 0.32 0.32 0.32 0.32 0.33 0.34 0.36 0.36 0.37
0.44 0.45 0.46 0.46 0.47 0.47 0.47 0.47 0.48 0.50 0.51 0.52 0.52 0.51 0.51 0.50 0.49 0.49 0.49 0.49 0.48 0.48 0.46 0.45 0.44 0.43 0.42 0.42 0.42 0.42 0.43 0.44 0.45 0.46 0.47 0.48 0.48 0.49 0.49 0.49 0.48 0.47 0.46 0.46 0.45 0.44 0.43 0.42 0.41 0.41 0.39 0.38 0.37 0.36 0.35 0.35 0.34 0.34 0.33 0.33 0.33 0.33 0.33 0.32 0.31 0.30 0.30 0.30 0.30 0.31 0.32 0.33 0.33 0.32 0.31 0.31 0.31 0.33 0.34 0.34 0.34 0.35 0.37 0.39 0.39
0.39 0.40 0.42 0.45 0.46 0.46 0.47 0.47 0.47 0.48 0.50 0.50 0.50 0.50 0.51 0.51 0.50 0.48 0.47 0.48 0.46 0.46 0.45 0.44 0.44 0.43 0.42 0.42 0.41 0.40 0.40 0.42 0.44 0.44 0.45 0.46 0.47 0.48 0.49 0.48 0.46 0.45 0.44 0.45 0.44 0.44 0.42 0.40 0.38 0.37 0.37 0.36 0.35 0.35 0.34 0.33 0.32 0.32 0.32 0.32 0.32 0.33 0.33 0.34 0.34 0.33 0.32 0.32 0.32 0.32 0.32 0.31 0.30 0.31 0.32 0.32 0.32 0.34 0.36 0.36 0.36 0.38 0.40 0.40 0.39
0.34 0.35 0.37 0.39 0.40 0.43 0.44 0.45 0.48 0.49 0.49 0.51 0.53 0.54 0.53 0.52 0.51 0.52 0.54 0.52 0.49 0.46 0.44 0.44 0.43 0.43 0.42 0.41 0.40 0.39 0.39 0.40 0.43 0.47 0.47 0.47 0.46 0.46 0.47 0.47 0.47 0.46 0.44 0.43 0.42 0.41 0.39 0.37 0.36 0.34 0.32 0.30 0.30 0.30 0.31 0.30 0.30 0.31 0.32 0.32 0.32 0.32 0.32 0.32 0.31 0.31 0.31 0.31 0.30 0.30 0.30 0.30 0.31 0.32 0.32 0.33 0.34 0.36 0.38 0.39 0.41 0.41 0.42 0.43 0.41
0.30 0.31 0.33 0.34 0.35 0.37 0.38 0.40 0.42 0.44 0.48 0.50 0.51 0.52 0.54 0.54 0.54 0.52 0.51 0.50 0.49 0.48 0.46 0.44 0.44 0.44 0.43 0.44 0.44 0.42 0.41 0.43 0.45 0.45 0.44 0.44 0.45 0.45 0.46 0.46 0.46 0.45 0.44 0.42 0.39 0.37 0.35 0.32 0.31 0.30 0.29 0.29 0.28 0.28 0.29 0.29 0.30 0.30 0.31 0.31 0.31 0.31 0.31 0.31 0.31 0.31 0.32 0.31 0.30 0.30 0.30 0.31 0.31 0.32 0.33 0.33 0.36 0.38 0.41 0.42 0.42 0.43 0.43 0.43 0.43
0.29 0.29 0.30 0.31 0.34 0.36 0.37 0.37 0.38 0.38 0.39 0.41 0.43 0.44 0.45 0.47 0.51 0.51 0.50 0.49 0.49 0.49 0.48 0.47 0.47 0.47 0.45 0.44 0.46 0.46 0.46 0.46 0.45 0.45 0.45 0.44 0.44 0.44 0.45 0.45 0.45 0.44 0.43 0.40 0.37 0.34 0.32 0.30 0.30 0.30 0.30 0.29 0.28 0.29 0.29 0.30 0.29 0.29 0.29 0.30 0.30 0.30 0.30 0.31 0.32 0.32 0.31 0.31 0.31 0.31 0.32 0.32 0.32 0.33 0.33 0.35 0.37 0.40 0.42 0.44 0.44 0.45 0.45 0.46 0.46
0.30 0.29 0.29 0.31 0.32 0.35 0.37 0.38 0.38 0.38 0.37 0.38 0.39 0.40 0.41 0.42 0.44 0.49 0.50 0.49 0.49 0.48 0.48 0.49 0.49 0.48 0.48 0.48 0.47 0.47 0.47 0.48 0.48 0.49 0.48 0.46 0.45 0.44 0.45 0.45 0.44 0.43 0.41 0.38 0.35 0.34 0.33 0.31 0.30 0.30 0.30 0.29 0.30 0.30 0.31 0.30 0.30 0.30 0.29 0.28 0.29 0.30 0.31 0.31 0.32 0.32 0.31 0.31 0.31 0.31 0.32 0.32 0.33 0.34 0.36 0.37 0.39 0.40 0.42 0.43 0.44 0.45 0.47 0.49 0.49
0.31 0.31 0.31 0.31 0.32 0.33 0.35 0.36 0.37 0.38 0.37 0.37 0.38 0.40 0.41 0.42 0.42 0.44 0.47 0.49 0.49 0.49 0.48 0.48 0.47 0.46 0.47 0.48 0.49 0.49 0.49 0.49 0.49 0.49 0.48 0.47 0.45 0.44 0.44 0.44 0.44 0.42 0.40 0.37 0.35 0.33 0.33 0.32 0.31 0.31 0.31 0.31 0.32 0.31 0.31 0.31 0.30 0.29 0.29 0.29 0.29 0.30 0.30 0.32 0.33 0.32 0.32 0.32 0.32 0.32 0.32 0.33 0.34 0.36 0.37 0.38 0.39 0.40 0.42 0.43 0.46 0.48 0.49 0.49 0.50
0.33 0.33 0.33 0.33 0.32 0.33 0.34 0.36 0.37 0.38 0.39 0.39 0.39 0.39 0.40 0.41 0.42 0.44 0.45 0.46 0.48 0.48 0.48 0.48 0.47 0.46 0.46 0.47 0.47 0.47 0.48 0.48 0.48 0.49 0.49 0.48 0.46 0.45 0.44 0.44 0.43 0.41 0.39 0.36 0.35 0.34 0.34 0.33 0.33 0.32 0.33 0.33 0.32 0.31 0.30 0.30 0.29 0.29 0.29 0.29 0.29 0.29 0.30 0.32 0.32 0.31 0.32 0.32 0.32 0.32 0.33 0.34 0.35 0.36 0.37 0.39 0.41 0.42 0.43 0.45 0.47 0.48 0.49 0.50 0.51
0.34 0.35 0.36 0.36 0.36 0.35 0.36 0.37 0.38 0.39 0.39 0.40 0.41 0.41 0.42 0.44 0.45 0.45 0.44 0.44 0.43 0.42 0.42 0.43 0.44 0.44 0.44 0.45 0.46 0.46 0.46 0.46 0.46 0.47 0.48 0.47 0.46 0.46 0.45 0.42 0.39 0.38 0.38 0.37 0.36 0.36 0.36 0.34 0.33 0.34 0.33 0.32 0.32 0.31 0.29 0.30 0.29 0.29 0.29 0.28 0.28 0.28 0.29 0.30 0.31 0.32 0.32 0.32 0.32 0.32 0.33 0.34 0.35 0.37 0.38 0.38 0.39 0.41 0.43 0.46 0.48 0.50 0.50 0.51 0.52
0.34 0.36 0.37 0.38 0.39 0.39 0.39 0.40 0.42 0.42 0.41 0.42 0.44 0.44 0.45 0.45 0.44 0.44 0.45 0.44 0.42 0.40 0.40 0.40 0.41 0.42 0.43 0.44 0.44 0.44 0.44 0.45 0.46 0.47 0.48 0.48 0.48 0.47 0.42 0.39 0.38 0.37 0.36 0.36 0.36 0.37 0.38 0.37 0.36 0.34 0.34 0.33 0.31 0.29 0.30 0.30 0.30 0.30 0.30 0.29 0.28 0.27 0.28 0.29 0.30 0.31 0.32 0.32 0.32 0.32 0.33 0.34 0.36 0.37 0.38 0.39 0.40 0.42 0.45 0.47 0.49 0.51 0.52 0.52 0.53
0.34 0.36 0.37 0.40 0.41 0.39 0.39 0.39 0.42 0.45 0.44 0.43 0.42 0.42 0.42 0.43 0.43 0.43 0.42 0.41 0.40 0.39 0.38 0.38 0.39 0.40 0.42 0.42 0.43 0.44 0.44 0.45 0.46 0.47 0.47 0.47 0.47 0.45 0.41 0.39 0.36 0.35 0.35 0.36 0.38 0.39 0.39 0.38 0.37 0.35 0.32 0.29 0.29 0.30 0.30 0.30 0.31 0.30 0.30 0.29 0.28 0.28 0.26 0.28 0.29 0.30 0.31 0.31 0.32 0.33 0.33 0.34 0.35 0.37 0.37 0.37 0.39 0.43 0.46 0.48 0.50 0.52 0.53 0.53 0.53
0.35 0.37 0.40 0.43 0.43 0.42 0.43 0.43 0.44 0.45 0.47 0.49 0.46 0.44 0.42 0.41 0.40 0.39 0.38 0.37 0.37 0.36 0.36 0.37 0.39 0.39 0.38 0.40 0.44 0.44 0.44 0.45 0.46 0.45 0.45 0.45 0.44 0.41 0.39 0.37 0.37 0.36 0.37 0.39 0.40 0.41 0.40 0.39 0.37 0.32 0.28 0.29 0.30 0.30 0.31 0.31 0.31 0.30 0.30 0.28 0.28 0.27 0.26 0.27 0.29 0.30 0.31 0.31 0.31 0.32 0.33 0.34 0.35 0.36 0.37 0.36 0.38 0.41 0.45 0.48 0.50 0.52 0.53 0.53 0.53
0.37 0.40 0.43 0.45 0.44 0.43 0.43 0.42 0.43 0.44 0.44 0.46 0.46 0.46 0.45 0.44 0.42 0.40 0.39 0.37 0.36 0.36 0.38 0.39 0.40 0.40 0.41 0.44 0.45 0.46 0.46 0.44 0.42 0.42 0.43 0.42 0.42 0.40 0.38 0.38 0.39 0.39 0.40 0.41 0.42 0.42 0.40 0.38 0.34 0.30 0.29 0.30 0.30 0.31 0.32 0.31 0.31 0.31 0.30 0.28 0.27 0.26 0.25 0.25 0.27 0.29 0.30 0.31 0.31 0.32 0.33 0.34 0.35 0.36 0.37 0.37 0.37 0.40 0.43 0.47 0.50 0.52 0.52 0.52 0.53
0.39 0.43 0.46 0.47 0.45 0.44 0.43 0.41 0.40 0.39 0.42 0.44 0.44 0.44 0.42 0.40 0.38 0.38 0.38 0.38 0.38 0.39 0.40 0.40 0.40 0.41 0.44 0.46 0.46 0.46 0.43 0.42 0.42 0.43 0.42 0.40 0.39 0.38 0.40 0.40 0.41 0.41 0.42 0.43 0.43 0.41 0.38 0.34 0.33 0.31 0.29 0.30 0.31 0.32 0.33 0.32 0.32 0.31 0.30 0.29 0.27 0.25 0.24 0.24 0.26 0.28 0.30 0.31 0.32 0.32 0.33 0.34 0.35 0.36 0.36 0.37 0.38 0.40 0.41 0.44 0.49 0.52 0.53 0.53 0.53
0.44 0.47 0.48 0.48 0.47 0.45 0.43 0.41 0.39 0.39 0.39 0.38 0.39 0.39 0.39 0.39 0.39 0.39 0.40 0.40 0.40 0.40 0.40 0.41 0.42 0.44 0.46 0.45 0.46 0.44 0.42 0.40 0.41 0.41 0.40 0.38 0.39 0.41 0.42 0.43 0.43 0.44 0.45 0.44 0.43 0.39 0.35 0.34 0.34 0.30 0.29 0.31 0.32 0.33 0.34 0.33 0.33 0.32 0.30 0.29 0.28 0.26 0.24 0.24 0.25 0.28 0.30 0.31 0.32 0.32 0.33 0.34 0.34 0.34 0.34 0.36 0.38 0.40 0.41 0.44 0.47 0.51 0.53 0.54 0.54
0.48 0.49 0.48 0.47 0.46 0.44 0.41 0.39 0.39 0.39 0.39 0.38 0.38 0.38 0.38 0.39 0.40 0.41 0.41 0.41 0.42 0.42 0.43 0.43 0.43 0.44 0.44 0.45 0.45 0.45 0.44 0.43 0.42 0.40 0.40 0.41 0.43 0.43 0.44 0.45 0.46 0.46 0.45 0.43 0.40 0.36 0.35 0.35 0.33 0.31 0.31 0.32 0.33 0.34 0.34 0.34 0.33 0.32 0.31 0.29 0.27 0.26 0.24 0.24 0.25 0.27 0.29 0.30 0.31 0.32 0.33 0.33 0.33 0.34 0.35 0.36 0.37 0.39 0.40 0.43 0.46 0.49 0.52 0.53 0.53
0.48 0.47 0.46 0.45 0.43 0.41 0.40 0.40 0.42 0.41 0.40 0.41 0.42 0.42 0.42 0.41 0.41 0.42 0.42 0.42 0.43 0.43 0.42 0.42 0.43 0.45 0.45 0.46 0.45 0.44 0.43 0.42 0.42 0.42 0.43 0.44 0.44 0.45 0.46 0.46 0.45 0.45 0.44 0.40 0.38 0.37 0.36 0.35 0.33 0.31 0.33 0.34 0.34 0.34 0.35 0.35 0.34 0.33 0.31 0.29 0.27 0.26 0.24 0.24 0.25 0.26 0.29 0.30 0.31 0.31 0.32 0.32 0.33 0.33 0.34 0.35 0.37 0.38 0.39 0.41 0.44 0.47 0.50 0.52 0.53
0.46 0.45 0.44 0.43 0.43 0.43 0.45 0.46 0.46 0.45 0.45 0.46 0.45 0.44 0.43 0.43 0.44 0.44 0.45 0.45 0.44 0.44 0.44 0.44 0.45 0.44 0.43 0.43 0.43 0.43 0.42 0.43 0.43 0.44 0.43 0.44 0.45 0.45 0.44 0.44 0.44 0.42 0.39 0.38 0.37 0.37 0.36 0.35 0.33 0.32 0.34 0.35 0.36 0.37 0.37 0.36 0.35 0.33 0.31 0.29 0.27 0.26 0.25 0.24 0.24 0.26 0.28 0.29 0.30 0.30 0.31 0.32 0.32 0.33 0.33 0.34 0.36 0.36 0.38 0.40 0.42 0.45 0.48 0.51 0.53
0.46 0.45 0.45 0.45 0.48 0.48 0.48 0.49 0.48 0.48 0.48 0.49 0.48 0.48 0.47 0.47 0.47 0.47 0.46 0.46 0.46 0.46 0.46 0.46 0.45 0.44 0.43 0.43 0.43 0.43 0.43 0.43 0.44 0.44 0.44 0.44 0.44 0.43 0.43 0.42 0.40 0.38 0.38 0.36 0.36 0.36 0.37 0.36 0.34 0.33 0.34 0.35 0.36 0.37 0.37 0.37 0.35 0.33 0.31 0.29 0.28 0.26 0.26 0.25 0.26 0.26 0.28 0.29 0.29 0.30 0.30 0.31 0.31 0.32 0.33 0.34 0.35 0.35 0.36 0.38 0.40 0.43 0.45 0.48 0.51
0.50 0.50 0.50 0.50 0.49 0.49 0.49 0.49 0.49 0.49 0.49 0.49 0.48 0.48 0.48 0.48 0.48 0.48 0.48 0.48 0.48 0.47 0.47 0.47 0.47 0.47 0.46 0.45 0.45 0.44 0.44 0.44 0.43 0.43 0.43 0.42 0.42 0.42 0.42 0.39 0.39 0.37 0.37 0.36 0.36 0.37 0.38 0.36 0.35 0.35 0.35 0.35 0.36 0.37 0.37 0.37 0.35 0.33 0.32 0.30 0.29 0.28 0.28 0.28 0.27 0.27 0.27 0.28 0.28 0.29 0.30 0.31 0.31 0.32 0.33 0.33 0.34 0.35 0.36 0.38 0.40 0.41 0.43 0.46 0.49
0.52 0.52 0.51 0.51 0.50 0.50 0.50 0.50 0.49 0.49 0.49 0.49 0.49 0.49 0.48 0.49 0.49 0.49 0.49 0.48 0.48 0.48 0.47 0.47 0.47 0.46 0.45 0.44 0.43 0.42 0.42 0.42 0.41 0.41 0.41 0.40 0.40 0.39 0.39 0.38 0.37 0.37 0.36 0.37 0.38 0.38 0.37 0.35 0.35 0.35 0.35 0.36 0.36 0.37 0.37 0.36 0.35 0.33 0.31 0.30 0.30 0.29 0.28 0.28 0.27 0.26 0.26 0.27 0.29 0.29 0.29 0.30 0.30 0.32 0.33 0.33 0.33 0.34 0.35 0.36 0.38 0.39 0.41 0.44 0.46
0.52 0.52 0.51 0.51 0.51 0.50 0.50 0.50 0.49 0.49 0.49 0.49 0.49 0.49 0.49 0.49 0.49 0.48 0.48 0.49 0.49 0.48 0.48 0.47 0.46 0.44 0.43 0.42 0.41 0.40 0.40 0.39 0.39 0.38 0.38 0.37 0.37 0.38 0.38 0.38 0.37 0.37 0.37 0.37 0.38 0.38 0.36 0.35 0.35 0.36 0.36 0.36 0.36 0.36 0.36 0.35 0.34 0.32 0.30 0.30 0.29 0.29 0.28 0.27 0.26 0.25 0.25 0.26 0.28 0.29 0.29 0.29 0.30 0.31 0.32 0.33 0.33 0.33 0.34 0.35 0.37 0.39 0.40 0.42 0.44
0.52 0.51 0.51 0.51 0.51 0.50 0.49 0.49 0.49 0.49 0.49 0.49 0.49 0.48 0.49 0.49 0.49 0.49 0.49 0.48 0.48 0.47 0.46 0.44 0.42 0.40 0.38 0.37 0.37 0.37 0.37 0.36 0.36 0.35 0.36 0.37 0.37 0.37 0.37 0.37 0.37 0.36 0.36 0.36 0.37 0.36 0.35 0.35 0.36 0.36 0.36 0.36 0.36 0.35 0.35 0.33 0.31 0.30 0.29 0.29 0.28 0.28 0.27 0.27 0.25 0.24 0.24 0.25 0.28 0.29 0.30 0.30 0.30 0.31 0.32 0.33 0.33 0.34 0.34 0.35 0.36 0.37 0.39 0.40 0.42
0.52 0.52 0.52 0.51 0.51 0.51 0.51 0.50 0.49 0.49 0.49 0.48 0.47 0.47 0.47 0.46 0.46 0.46 0.46 0.46 0.45 0.44 0.42 0.40 0.38 0.36 0.35 0.34 0.34 0.34 0.35 0.34 0.35 0.35 0.36 0.36 0.36 0.36 0.36 0.35 0.35 0.35 0.35 0.35 0.35 0.35 0.35 0.35 0.35 0.35 0.35 0.35 0.34 0.33 0.32 0.31 0.29 0.29 0.28 0.28 0.27 0.27 0.27 0.26 0.26 0.24 0.23 0.24 0.26 0.28 0.29 0.29 0.29 0.30 0.31 0.32 0.33 0.33 0.33 0.34 0.35 0.36 0.37 0.38 0.40
0.52 0.52 0.52 0.51 0.51 0.51 0.50 0.48 0.47 0.46 0.45 0.45 0.45 0.45 0.45 0.45 0.45 0.46 0.45 0.45 0.42 0.40 0.39 0.37 0.35 0.35 0.34 0.33 0.33 0.33 0.33 0.33 0.34 0.34 0.34 0.34 0.34 0.34 0.33 0.33 0.33 0.33 0.34 0.33 0.33 0.34 0.35 0.34 0.35 0.34 0.34 0.33 0.32 0.31 0.30 0.30 0.29 0.29 0.28 0.28 0.27 0.26 0.26 0.26 0.26 0.25 0.24 0.23 0.25 0.27 0.28 0.29 0.28 0.29 0.30 0.31 0.32 0.32 0.33 0.33 0.34 0.35 0.36 0.37 0.38
Wind_Speed
14 14 14 15 15 15 15 15 14 14 14 13 13 12 12 12 12 11 11 11 10 10 10 10 9 8 8 7 7 7 7 7 8 8 8 7 7 7 7 7 7 7 7 7 7 7 7 7 7 7 7 7 7 7 6 6 6 6 6 6 6 6 6 7 6 7 8 8 8 9 9 9 10 10 10 11 11 12 12 12 12 13 13 14 15
13 13 14 14 15 15 15 15 14 14 14 14 13 13 13 13 13 13 12 12 11 11 11 10 10 10 9 9 9 9 9 9 9 9 9 9 9 9 9 9 8 8 8 8 8 8 8 8 8 8 9 9 8 8 8 8 8 8 7 7 7 7 8 8 8 8 9 9 10 10 10 11 11 12 12 13 13 14 14 14 15 15 15 16 16
13 13 13 14 14 13 14 14 15 15 15 15 14 14 14 15 15 14 14 13 13 12 12 12 12 12 11 11 11 11 11 11 11 11 10 10 10 10 10 10 10 10 10 10 10 10 10 10 10 10 10 10 9 10 10 9 9 9 9 9 9 9 9 10 10 10 10 10 11 11 12 12 13 13 14 15 15 16 16 16 17 17 17 18 18
13 13 13 13 13 13 13 14 15 16 16 16 15 15 15 15 16 16 15 15 14 14 14 13 13 13 13 13 13 13 13 13 13 13 12 12 12 12 12 12 11 11 12 11 11 12 12 12 12 12 11 11 11 11 11 11 11 10 10 10 10 10 11 11 11 12 12 12 13 13 14 14 15 15 16 17 17 18 18 19 19 19 20 20 20
13 13 13 14 14 14 14 14 15 16 17 16 16 16 15 15 16 16 16 16 16 15 15 15 15 15 15 15 14 15 15 15 15 15 14 14 14 14 14 14 14 14 14 14 14 14 14 14 14 14 14 13 13 13 13 12 12 12 12 12 12 12 13 13 13 13 14 14 15 16 16 17 17 18 18 18 19 19 20 21 21 21 22 22 22
13 13 14 14 14 14 14 14 15 16 17 17 17 17 16 16 16 16 16 16 16 16 16 16 16 16 16 15 15 16 16 16 17 17 16 15 15 15 15 16 16 16 16 16 16 16 16 16 16 16 16 16 15 15 15 14 14 14 14 14 14 15 15 15 15 15 15 16 17 17 18 19 19 19 20 20 21 21 22 22 23 23 24 24 24
14 14 14 14 14 14 15 15 15 16 17 17 17 17 17 17 16 16 17 17 17 17 16 16 16 16 16 16 16 16 16 16 17 17 18 17 17 17 16 17 17 18 18 18 18 18 18 18 18 18 18 18 18 17 17 17 17 16 16 16 17 17 16 16 16 16 17 17 18 18 19 20 20 21 21 22 22 22 23 24 24 25 25 26 26
14 14 14 14 14 14 15 15 15 16 16 17 17 18 18 17 17 17 17 17 17 17 17 16 16 16 17 17 17 17 17 17 17 17 18 18 18 18 18 18 18 18 18 19 19 19 19 20 20 20 20 20 20 20 20 19 19 19 18 18 18 18 18 18 18 19 19 19 20 20 21 21 22 22 23 23 24 24 24 25 26 26 26 27 27
14 14 14 15 14 14 15 15 15 15 16 16 17 18 18 18 18 18 18 18 18 17 17 17 17 17 17 17 17 17 18 18 17 17 18 18 18 19 19 18 18 19 19 19 20 20 21 22 22 22 22 22 22 22 22 22 21 21 20 20 20 20 20 20 21 21 22 22 22 22 22 23 23 24 24 24 24 25 26 26 27 27 27 28 28
14 14 15 15 15 15 15 15 15 15 16 16 17 18 18 18 19 19 18 18 18 18 18 19 19 19 19 18 18 18 17 17 16 16 17 17 17 18 18 18 18 19 19 20 20 21 22 22 23 24 24 24 24 24 24 24 23 23 23 23 23 22 22 22 23 23 24 24 24 24 25 25 25 25 25 25 26 27 27 28 28 29 28 28 28
15 15 15 15 15 15 15 15 16 16 16 17 17 18 18 19 19 19 19 19 20 20 20 20 19 19 18 18 17 17 17 16 16 16 16 16 17 17 17 18 18 19 19 20 21 21 22 23 23 24 24 24 24 25 25 25 25 25 24 24 24 24 24 24 25 25 26 26 26 27 27 27 27 27 27 28 28 29 29 30 30 30 30 30 30
16 16 16 16 16 16 16 17 17 17 17 17 17 18 18 19 19 19 19 20 20 19 19 19 18 18 17 17 17 17 17 17 17 17 17 17 17 18 18 19 19 20 20 21 21 22 23 23 24 24 25 25 25 25 25 24 25 25 25 25 25 26 26 27 27 27 27 27 28 28 28 29 29 29 29 30 31 31 32 32 32 32 32 32 32
16 16 16 17 17 17 18 18 18 18 18 18 18 18 18 18 18 19 19 18 18 18 18 18 18 18 18 18 18 18 18 18 19 19 19 19 20 20 20 20 21 21 22 22 22 23 23 23 24 25 25 25 26 25 25 25 25 26 26 26 27 27 27 28 28 29 29 29 29 30 30 31 31 31 32 32 33 34 34 34 34 34 34 35 35
16 17 17 18 18 18 19 19 19 19 19 19 19 18 18 18 18 18 18 18 18 18 18 18 18 19 19 19 20 20 20 20 20 21 21 21 21 22 22 22 22 23 23 23 24 24 24 24 24 25 25 26 26 26 26 26 26 27 27 28 28 28 29 29 29 30 30 31 31 32 32 33 33 33 34 35 35 36 36 36 36 37 37 37 38
16 17 18 18 19 19 19 19 19 19 19 19 19 19 19 19 19 19 19 19 20 20 20 20 20 20 21 21 21 21 22 22 22 22 22 23 23 23 23 23 24 24 24 24 24 24 25 25 25 25 25 26 26 26 26 26 26 27 27 28 29 29 30 30 30 31 31 31 32 32 33 33 34 34 35 35 36 36 37 37 38 38 39 39 39
16 16 17 17 18 19 20 20 20 20 20 20 20 20 20 20 21 21 21 21 21 21 21 21 21 22 22 22 22 22 23 23 23 23 23 24 24 24 24 24 24 24 24 24 24 24 25 25 25 25 25 25 25 25 25 25 26 27 27 28 29 30 30 30 30 30 31 31 32 32 33 33 34 34 35 35 36 36 37 37 38 38 38 39 39
17 17 18 18 18 18 19 20 21 22 22 22 21 21 21 21 21 21 22 22 22 22 22 22 23 23 23 23 23 23 23 24 24 24 24 24 24 24 24 24 24 24 24 24 24 24 24 24 24 24 24 24 24 24 25 25 26 27 28 28 29 29 30 30 30 31 31 32 32 33 33 34 34 35 35 36 36 37 37 37 37 37 38 38 38
19 19 19 20 19 19 19 19 20 21 21 21 22 22 22 22 22 23 23 23 23 23 23 23 23 23 23 23 23 23 24 24 24 24 24 24 25 25 24 24 24 24 24 24 24 24 24 24 24 24 24 24 24 24 25 26 27 27 28 28 29 29 30 30 31 31 32 32 33 33 33 34 34 35 36 36 37 37 37 37 37 38 38 38 38
22 22 22 22 22 22 21 21 21 22 22 22 22 22 23 23 23 23 23 23 23 23 23 23 23 23 23 23 24 24 24 25 25 25 25 25 25 25 25 25 24 24 24 24 24 24 24 24 24 24 24 24 25 25 26 27 27 28 28 29 29 29 30 31 31 32 32 32 33 33 34 34 35 36 36 36 37 37 37 37 37 38 38 38 39
26 26 25 25 24 24 24 24 24 24 25 25 24 24 24 24 24 24 24 24 24 24 24 24 24 24 24 25 25 26 26 26 26 25 25 25 25 25 25 25 25 25 25 25 24 24 24 24 24 25 25 25 26 26 27 28 28 29 29 29 30 30 31 31 32 32 33 33 33 34 34 35 35 35 36 36 36 36 36 37 37 37 38 38 38
28 28 28 27 27 27 27 27 26 26 26 26 26 26 26 26 26 25 25 25 25 25 25 25 26 26 26 27 27 27 27 26 26 26 25 25 25 25 25 25 26 25 25 25 25 25 25 25 26 26 26 26 26 27 28 28 29 29 30 30 30 31 32 32 32 33 33 33 33 34 34 34 34 34 35 35 35 35 36 37 37 38 38 38 39
29 29 29 29 29 29 29 29 29 28 28 27 27 28 28 27 27 27 27 27 26 27 27 27 27 28 28 28 28 28 27 27 27 26 26 26 26 26 26 27 27 26 26 26 26 26 27 27 27 27 26 27 27 27 28 29 29 30 30 30 30 31 32 32 32 32 32 33 33 33 33 33 34 34 34 34 34 35 36 36 37 37 38 38 39
29 30 30 30 31 30 30 30 30 29 29 29 29 29 29 29 29 28 28 28 28 28 28 28 28 28 28 28 28 28 28 28 28 28 28 28 28 28 28 28 28 27 27 27 27 28 28 28 28 27 28 28 28 28 29 29 29 30 30 30 30 31 31 31 32 32 32 32 32 32 32 33 33 33 33 33 34 34 35 36 36 36 36 37 37
31 31 31 31 31 31 30 30 30 30 30 30 30 31 31 31 31 31 30 30 30 30 29 29 29 29 29 29 29 29 29 29 29 29 29 29 29 29 29 28 28 28 28 29 29 28 28 28 28 28 28 28 29 29 29 29 29 29 30 30 30 31 31 31 31 31 31 31 31 32 32 32 32 32 32 32 33 34 34 34 34 34 34 34 35
33 33 32 32 32 32 32 32 32 32 32 32 32 32 32 32 32 32 32 32 32 32 31 31 31 31 31 31 31 30 31 31 30 30 30 30 30 30 29 29 29 29 29 29 29 28 28 28 28 28 29 29 29 29 29 29 29 29 30 30 30 30 30 30 30 30 30 30 31 31 31 31 31 31 31 32 32 32 32 32 32 32 32 32 32
35 35 35 35 34 35 35 35 34 34 34 34 34 33 33 33 33 33 33 33 33 33 33 33 33 33 32 32 32 32 32 32 32 31 31 31 30 30 30 30 30 29 29 29 29 28 28 28 28 28 28 29 29 29 29 29 29 29 29 29 29 29 29 29 29 29 29 29 29 29 29 29 29 30 30 30 30 29 29 29 29 30 30 30 30
38 38 37 37 37 37 36 36 36 36 36 36 36 36 35 35 35 35 35 35 35 35 34 34 34 34 34 33 33 33 33 33 33 32 32 32 31 31 31 31 30 30 30 29 29 28 28 28 28 28 28 28 28 28 28 28 28 28 28 28 28 28 28 28 28 28 28 28 28 28 28 28 28 28 28 27 27 27 27 28 28 28 28 28 29
40 40 40 39 39 39 39 38 38 38 39 39 39 39 38 38 38 38 37 37 37 37 37 37 36 36 36 35 35 34 34 34 34 34 33 33 32 32 31 31 31 30 30 29 29 28 28 27 27 28 28 28 27 27 27 27 27 27 26 26 26 26 26 26 26 26 26 26 26 26 26 25 25 25 25 26 26 26 27 27 28 27 28 28 29
42 42 42 41 41 41 41 40 40 40 40 40 41 41 41 41 41 40 40 39 39 39 39 38 38 38 37 37 37 36 36 35 34 34 33 33 32 31 31 30 30 30 29 29 28 28 28 28 28 27 27 27 27 26 26 26 25 25 24 24 24 24 24 24 24 24 24 24 24 24 23 23 23 24 24 25 25 26 26 27 27 27 28 28 29
43 43 43 42 42 42 42 41 41 40 40 41 41 41 41 41 41 40 40 40 40 39 39 39 39 38 38 38 37 37 36 35 34 33 33 32 32 31 30 30 29 29 28 28 28 27 27 27 27 26 26 25 25 24 24 24 23 23 23 23 22 22 22 22 22 22 22 22 22 22 22 22 23 23 24 24 25 25 26 26 26 27 27 27 28
42 42 42 42 42 41 41 41 41 40 40 40 40 40 40 40 40 39 39 39 39 38 38 38 38 38 38 37 37 36 36 35 34 33 33 32 31 30 30 29 29 28 28 27 26 26 26 25 25 24 24 23 23 22 22 22 22 22 21 21 21 21 20 20 20 20 20 20 20 20 21 21 22 22 23 23 24 25 25 25 26 26 26 26 27
40 40 40 40 40 40 40 40 40 39 39 39 38 38 38 38 38 38 38 37 37 37 37 37 36 36 36 36 36 35 35 34 34 33 32 31 31 30 29 28 28 27 26 26 25 24 24 24 23 22 22 21 21 21 20 20 20 20 20 19 19 18 18 18 18 18 18 18 19 19 20 20 21 21 22 23 24 24 24 24 24 25 25 25 25
39 39 38 38 39 39 39 39 39 39 38 38 38 38 38 37 37 36 36 35 35 35 34 34 34 34 34 34 34 34 33 33 33 32 31 30 29 28 27 27 26 25 25 24 23 23 22 22 21 20 20 20 19 19 19 18 18 18 17 17 16 16 16 16 16 16 17 17 18 18 18 19 20 21 22 23 23 23 23 23 23 23 24 24 23
38 37 37 37 37 37 37 37 38 38 38 38 38 38 38 38 37 36 36 35 34 34 33 33 33 33 33 32 32 32 32 31 31 30 29 28 27 26 25 25 24 24 23 23 22 21 20 20 19 19 19 19 18 18 17 16 16 15 14 14 14 14 15 15 15 15 16 16 16 17 17 18 19 20 21 22 22 22 22 22 22 22 22 22 22
35 35 35 35 35 35 35 36 36 36 36 36 36 36 36 36 36 36 36 35 35 34 33 33 32 31 31 31 31 30 30 29 28 27 27 26 25 24 23 23 23 22 22 21 20 20 19 18 18 18 18 17 17 16 15 14 13 13 12 13 13 13 13 13 14 14 15 15 15 16 17 18 19 20 20 21 21 22 22 22 22 22 21 21 20
32 32 32 32 32 32 32 33 33 33 33 33 33 34 34 34 35 35 35 35 35 34 33 32 31 30 30 29 28 27 27 26 25 25 25 24 24 23 22 22 21 21 21 20 19 18 18 17 17 17 16 15 15 14 13 12 12 11 11 12 12 12 12 12 13 13 14 14 14 16 17 17 18 19 19 20 21 21 21 21 21 21 20 19 19
29 29 29 29 28 28 28 28 29 30 30 30 30 31 31 32 33 33 33 33 33 32 31 30 29 29 28 26 25 24 23 23 23 23 23 23 22 22 21 21 20 20 19 18 18 17 17 16 15 15 14 14 13 12 12 11 11 10 11 11 11 11 11 11 12 12 13 13 14 15 16 17 17 18 19 20 21 21 21 21 20 19 19 19 18
25 25 25 25 25 24 24 24 24 25 26 26 26 27 28 29 29 30 30 31 31 30 29 28 27 26 25 24 23 22 22 22 22 21 21 21 21 21 20 19 19 18 17 17 16 16 15 15 14 13 13 12 12 11 10 10 10 10 10 10 10 10 10 11 11 11 12 13 14 15 16 16 17 17 18 19 20 21 21 20 19 18 18 18 17
22 22 22 21 21 21 20 20 21 22 22 22 23 24 24 25 25 26 26 26 27 26 26 25 24 23 23 22 22 22 21 21 21 20 20 20 20 19 18 17 17 16 16 15 15 14 14 13 13 12 11 11 10 10 9 9 9 9 9 9 9 10 10 10 10 11 11 12 13 14 15 15 16 17 18 19 20 20 20 20 19 18 18 17 17
18 18 18 18 18 18 18 18 19 19 20 20 21 22 22 22 22 23 23 23 23 23 23 23 22 22 21 21 21 20 19 19 19 19 19 18 18 17 17 16 16 15 15 14 14 13 12 12 11 11 10 10 9 9 9 9 9 9 8 9 9 9 10 10 10 10 11 12 13 13 14 15 16 17 18 18 19 20 20 19 18 18 17 17 16
15 15 15 15 15 15 15 16 17 17 18 19 20 21 21 21 21 21 21 20 20 20 21 20 20 20 19 19 18 17 17 17 17 17 17 17 17 16 16 15 15 14 14 13 13 12 11 11 10 10 9 9 9 9 8 8 8 8 8 9 9 9 9 10 9 9 10 11 12 13 14 15 16 17 17 18 19 20 20 19 18 18 17 16 16
12 13 13 13 13 13 14 14 15 15 16 17 18 19 19 19 19 19 18 18 17 17 17 17 17 16 16 16 16 16 17 16 16 16 16 16 16 15 15 15 14 13 13 12 11 11 11 10 10 9 9 9 8 8 8 8 9 9 9 9 9 9 9 9 9 9 10 11 12 13 14 15 16 16 17 17 18 19 20 19 18 18 17 16 15
10 10 10 11 11 11 11 12 12 12 12 13 13 14 15 15 15 15 14 14 14 14 14 15 15 15 15 14 15 15 16 16 15 15 15 16 15 15 15 14 13 13 12 11 11 10 10 10 10 9 9 9 8 8 9 9 9 9 9 10 9 9 9 8 8 9 10 11 12 13 14 15 16 16 16 17 18 19 20 20 19 18 17 16 15
7 7 7 7 7 7 8 8 8 8 8 8 7 7 8 9 10 10 11 11 12 12 12 13 14 15 14 14 14 14 15 15 15 15 15 15 14 14 14 13 13 12 11 11 10 10 10 10 10 9 9 9 8 9 9 9 9 9 9 9 9 8 8 8 8 9 10 11 12 13 14 15 16 16 16 17 18 19 19 20 19 19 18 16 15
5 4 4 4 3 3 3 4 5 5 5 5 6 6 7 9 10 10 11 12 12 12 12 12 13 13 13 13 13 13 13 13 14 14 13 13 13 13 13 12 12 11 11 10 10 10 10 10 9 9 9 9 9 9 9 9 9 9 9 9 8 8 8 8 9 10 10 11 12 13 14 15 15 16 17 17 18 18 19 19 20 19 19 17 16
6 5 5 4 3 3 3 3 5 6 7 8 8 9 9 10 11 11 11 12 12 11 11 11 11 12 12 12 12 12 12 12 12 12 12 12 12 12 12 11 11 10 10 10 10 10 10 9 9 9 9 9 9 9 9 9 8 8 8 8 8 8 8 9 9 10 11 11 12 12 13 14 15 16 17 17 18 18 18 19 19 20 19 18 16
9 8 8 7 7 7 7 7 8 8 9 10 10 10 10 10 10 10 10 11 10 10 10 9 10 10 10 11 11 11 11 11 11 11 11 11 11 11 10 10 10 10 10 10 10 9 9 8 8 9 9 9 9 8 8 8 8 8 8 7 7 8 8 9 9 10 11 11 12 12 13 14 14 15 16 17 17 18 18 18 19 19 20 19 17
11 11 10 9 9 9 10 10 10 11 11 10 10 11 10 10 10 9 9 9 9 9 8 8 8 8 9 9 10 10 10 10 10 11 11 10 10 10 10 10 10 10 9 9 8 8 8 8 8 8 8 8 8 8 8 8 8 8 8 8 8 8 8 9 10 10 11 12 12 12 13 13 14 15 16 16 17 17 18 18 19 19 20 19 18
11 11 10 10 10 10 11 11 11 10 10 10 10 10 10 9 8 8 8 8 8 8 7 7 7 7 8 9 9 10 10 10 10 10 9 9 9 9 10 10 10 9 9 8 8 8 8 8 8 8 8 8 8 8 8 8 8 8 8 8 8 9 9 9 10 11 11 12 12 12 13 13 13 14 15 16 16 17 18 18 18 19 19 19 19
11 11 11 10 10 11 11 10 10 10 9 9 9 9 8 7 7 6 7 7 7 6 6 6 7 7 8 9 9 9 9 9 9 9 9 9 9 9 10 10 9 9 8 8 8 8 8 8 8 8 8 9 9 9 9 9 9 9 9 9 9 10 10 10 11 11 12 12 13 13 13 13 13 14 14 15 15 16 17 18 18 19 19 19 19
10 10 10 10 10 10 9 9 9 9 9 8 8 8 7 6 6 5 6 6 5 5 6 7 7 8 8 9 9 9 8 8 8 8 8 9 9 9 9 9 9 9 8 8 8 8 8 8 8 8 9 9 9 9 9 9 9 10 10 10 10 11 11 11 11 12 12 13 13 13 13 13 13 13 14 14 15 16 16 17 18 18 19 19 19
Wind_Direction
211 217 223 225 230 238 240 239 239 241 243 242 240 238 237 237 238 241 243 244 244 244 243 245 246 248 252 258 263 266 269 271 270 268 267 269 270 271 271 271 271 272 273 272 271 272 272 271 271 272 271 271 271 271 271 273 276 277 277 277 276 276 276 276 274 273 275 279 280 283 286 286 289 293 294 294 295 294 294 293 292 291 290 289 289
219 223 226 229 235 240 240 238 237 239 240 239 237 235 234 234 236 239 241 241 241 241 240 241 243 246 252 257 261 264 266 267 266 266 266 266 268 269 269 269 269 271 272 270 270 270 270 270 270 271 272 271 270 269 269 270 272 273 274 275 275 277 278 279 280 279 278 280 281 283 287 287 288 291 293 293 294 294 293 293 292 292 291 290 289
228 229 230 233 237 240 240 238 235 235 236 234 233 234 234 235 236 238 240 241 242 243 242 242 243 247 253 257 259 261 263 263 262 264 266 267 269 270 270 270 271 272 272 271 271 270 270 270 270 270 271 271 271 271 271 272 273 273 273 274 275 278 281 281 282 281 280 281 282 284 287 289 289 290 291 292 292 292 292 291 291 290 290 290 288
229 230 233 237 240 241 241 239 235 234 234 233 233 235 236 236 237 239 242 243 244 246 247 246 246 250 256 259 260 261 263 264 263 263 265 266 268 270 271 271 271 272 271 270 269 269 268 268 269 269 269 269 270 270 270 272 274 274 273 274 276 279 282 283 283 283 282 282 283 285 287 289 289 290 290 290 290 290 291 291 290 290 290 290 289
232 232 235 238 241 243 243 241 237 234 233 233 235 237 237 237 238 239 242 244 245 247 248 248 249 254 257 260 262 264 266 266 264 264 265 267 268 270 270 270 270 270 270 269 268 267 267 267 267 267 268 268 269 269 269 269 271 273 273 273 275 277 279 280 281 282 283 283 284 285 287 288 288 290 291 290 289 289 291 291 291 291 291 291 290
235 235 237 239 242 243 243 241 237 233 233 234 236 237 237 237 238 239 242 246 248 249 248 248 250 254 257 260 265 267 268 268 264 262 264 267 270 271 272 271 269 269 269 268 268 267 266 266 266 266 266 266 267 268 268 268 269 271 272 273 274 276 277 278 279 280 283 284 285 285 286 288 288 289 291 292 290 289 290 291 290 290 290 291 291
238 238 239 240 242 242 241 239 236 233 234 235 235 236 237 238 239 241 244 248 249 250 249 249 251 254 257 262 266 267 269 269 266 263 264 267 269 271 273 273 272 270 268 267 267 266 265 265 266 266 266 266 267 268 269 269 270 270 271 273 273 274 275 276 277 280 282 284 285 286 286 287 288 288 289 291 289 288 290 290 290 289 289 289 289
239 239 240 241 243 242 240 239 237 235 234 234 235 236 238 240 240 242 246 248 249 249 250 250 252 255 259 263 266 267 269 270 268 265 265 266 268 269 270 272 272 270 268 266 267 266 266 266 266 266 267 266 267 268 269 269 270 269 270 272 273 273 274 274 275 278 281 283 285 286 287 288 289 289 289 289 288 288 289 289 289 289 289 288 287
240 240 242 244 245 243 241 240 239 237 234 234 234 236 238 239 240 243 247 248 248 248 250 252 254 257 261 264 266 268 270 270 269 267 267 267 268 270 270 271 271 271 270 268 268 267 267 267 266 265 265 265 265 266 267 268 268 269 270 271 272 272 273 274 276 278 281 284 285 287 288 289 291 292 291 290 289 289 289 288 288 288 288 288 287
243 243 244 245 245 243 242 241 239 237 236 235 236 238 239 240 242 244 246 247 248 249 252 255 257 260 262 265 267 268 270 270 269 269 269 269 270 271 272 272 272 271 270 270 269 269 267 267 267 265 265 265 265 266 266 267 268 269 270 270 270 272 273 275 278 281 283 285 287 288 289 289 290 292 292 291 291 290 289 289 288 288 288 288 287
248 246 245 245 245 243 243 242 241 241 240 240 240 241 242 243 244 245 246 247 250 252 254 256 258 260 261 263 265 267 268 269 270 270 270 270 271 271 272 272 272 272 272 271 271 270 269 269 269 268 267 267 267 267 267 268 268 268 269 269 270 272 274 275 278 281 283 284 286 287 288 289 290 290 290 290 290 290 289 288 288 288 287 287 287
251 249 247 247 247 247 246 245 245 245 245 244 244 244 244 245 245 246 247 248 250 252 253 254 255 258 260 262 264 266 267 269 269 269 269 270 272 273 273 272 272 272 273 273 272 272 272 271 270 269 269 269 269 269 268 268 268 267 267 269 271 273 275 276 277 279 281 282 283 285 287 288 288 288 289 289 289 289 288 288 287 287 286 286 286
251 251 250 250 250 250 249 247 247 247 246 245 245 246 245 245 245 245 246 247 249 250 250 252 254 256 259 262 264 267 268 269 270 269 269 270 271 272 273 273 273 273 274 274 274 274 274 273 272 271 271 270 270 269 268 267 267 267 267 269 271 273 275 277 278 279 280 281 282 284 285 286 286 287 287 288 288 288 288 287 287 287 286 285 285
252 252 253 254 253 252 251 250 249 249 248 248 248 248 247 247 247 247 248 248 249 251 252 253 255 258 260 263 266 268 269 271 271 271 270 271 270 271 272 273 274 274 274 274 274 275 275 275 274 273 273 272 271 270 268 267 267 268 268 270 272 274 276 277 279 280 281 282 283 283 284 285 285 285 286 286 286 286 287 287 287 286 286 285 285
254 255 256 256 256 255 253 253 252 251 251 250 249 249 248 249 249 250 251 251 252 253 254 256 258 261 263 265 267 269 271 273 273 272 271 271 271 272 273 274 275 276 275 275 275 275 276 276 276 275 274 273 272 270 269 268 268 269 270 271 273 274 276 278 280 281 282 283 283 283 284 284 285 285 285 285 285 286 286 286 286 286 285 285 285
255 256 257 257 257 256 255 254 254 253 252 251 250 249 249 250 251 252 253 254 255 256 256 258 261 263 264 267 268 270 271 274 274 273 272 271 272 273 274 274 275 276 276 276 276 276 277 277 277 276 275 274 273 271 270 269 270 270 271 272 274 276 278 280 281 282 283 283 284 284 285 285 286 286 286 287 287 287 287 286 286 286 286 285 285
256 257 257 257 258 258 257 256 256 255 254 252 251 251 251 252 253 255 256 257 257 258 259 261 263 265 267 269 270 271 272 273 274 273 272 272 272 273 273 273 274 275 275 276 276 276 277 277 276 275 275 274 274 272 272 271 271 272 273 274 276 278 279 281 282 283 283 284 285 285 286 286 287 287 288 288 288 288 288 288 287 287 287 286 285
258 258 258 257 256 256 257 259 258 257 255 253 252 252 253 254 255 257 258 259 260 261 262 263 265 267 268 270 271 271 272 273 274 274 274 273 273 272 272 272 273 273 274 275 276 276 277 278 278 276 275 274 274 273 273 273 273 273 275 276 277 279 280 281 282 283 283 284 285 286 286 287 288 288 288 289 289 289 289 288 288 288 288 287 286
260 261 261 260 258 256 256 258 259 257 255 253 253 253 254 254 256 258 259 260 261 262 263 264 265 266 267 269 270 271 272 274 275 275 274 274 273 272 271 271 272 273 275 275 276 275 276 277 278 277 275 274 274 274 274 275 275 275 276 277 279 280 281 281 282 283 283 284 285 286 287 288 288 289 289 289 289 289 289 289 289 288 288 287 287
262 262 262 262 261 259 258 259 259 257 255 254 255 256 256 257 258 259 259 260 260 261 262 263 264 266 268 270 271 273 274 275 275 275 274 273 273 271 270 270 272 274 275 275 275 275 275 275 276 276 276 275 274 275 276 276 276 277 277 278 279 279 280 281 282 283 284 285 286 287 287 287 288 289 289 289 290 290 289 289 289 288 288 287 287
262 262 261 261 260 259 259 259 259 257 256 256 256 256 257 258 259 260 260 260 260 261 263 264 266 268 271 272 273 273 274 274 274 273 273 272 272 271 270 270 272 274 275 275 274 274 274 274 275 275 275 275 275 276 276 277 277 277 278 278 279 280 280 281 282 283 284 285 286 287 287 288 288 289 289 290 290 290 290 290 290 289 288 288 287
262 261 261 260 260 260 259 259 259 258 257 256 255 255 256 257 258 259 260 261 262 263 265 266 268 270 272 273 272 272 273 273 273 272 272 271 271 271 271 271 272 274 275 275 274 274 274 274 274 275 275 275 276 276 276 277 277 277 278 278 279 280 281 281 282 283 284 285 286 287 287 288 289 289 290 290 291 291 291 291 291 291 290 289 289
264 263 262 261 261 260 259 257 257 257 257 256 255 255 255 255 257 259 260 261 262 264 266 267 268 270 271 271 271 271 271 271 272 272 272 271 271 271 271 271 272 273 274 274 275 274 274 274 274 275 275 276 276 276 277 277 277 277 277 278 279 280 281 282 283 284 284 285 286 287 288 289 290 290 291 291 292 292 293 293 293 292 292 291 290
265 265 264 262 261 260 259 257 256 256 256 256 256 256 255 255 257 258 259 260 262 264 265 267 268 270 271 271 271 270 270 270 271 272 272 272 271 271 270 270 271 272 274 274 275 274 273 273 274 275 276 276 276 277 277 277 277 278 278 279 280 281 282 282 283 284 285 286 287 288 289 290 290 291 292 292 293 293 294 294 293 293 292 292 292
267 266 265 264 263 261 260 259 257 256 255 255 255 256 256 257 257 258 259 260 261 263 265 267 268 270 270 271 271 271 270 270 271 271 271 271 271 270 270 269 270 272 274 275 275 274 273 273 274 274 275 276 276 276 277 278 278 278 279 280 280 281 282 283 283 284 285 286 288 289 289 290 291 291 292 293 294 294 294 294 294 295 295 295 295
267 266 266 265 264 263 262 260 259 257 256 256 256 256 257 257 258 259 259 260 261 263 265 266 268 269 269 270 270 270 270 270 270 270 270 270 270 269 269 270 271 273 274 274 274 274 273 273 273 274 275 276 276 277 277 277 278 278 279 280 281 281 282 282 283 285 286 287 288 289 290 291 291 292 293 294 294 294 295 295 296 297 297 297 297
266 266 265 265 264 263 262 261 260 258 258 257 257 257 257 257 258 259 260 261 262 263 264 266 267 268 268 269 269 270 270 270 269 269 269 269 269 269 269 269 270 272 273 272 272 272 273 273 273 274 275 276 276 277 277 277 278 279 279 280 280 280 281 282 284 285 286 287 288 289 290 291 292 293 294 295 295 296 297 297 298 298 298 299 299
265 264 264 264 263 263 262 261 260 259 259 258 257 257 257 258 258 259 260 261 262 263 264 265 266 267 267 268 268 268 268 268 268 268 268 268 268 268 267 268 268 270 270 270 270 271 272 272 273 274 275 276 277 277 278 278 278 279 279 279 279 280 281 282 284 285 287 288 289 290 291 292 293 294 295 296 297 298 299 299 299 300 300 301 301
265 264 264 263 262 262 262 261 260 260 260 259 258 258 259 259 259 260 261 262 262 263 264 264 265 266 267 268 268 267 267 267 268 268 268 267 267 266 266 266 267 268 268 268 269 270 271 272 273 274 275 276 277 277 277 277 277 277 278 278 279 280 282 283 284 286 288 289 291 291 291 292 294 296 298 299 299 300 301 302 302 302 302 302 302
265 264 263 263 262 262 262 261 260 260 260 260 260 260 260 260 260 260 261 262 262 263 264 264 266 266 267 267 267 267 267 268 268 267 266 265 265 264 264 265 265 266 266 267 268 269 270 271 273 274 275 276 275 275 274 274 275 275 277 278 279 281 283 284 285 287 289 290 291 292 293 294 296 298 299 300 302 302 303 304 304 303 303 303 302
264 263 263 262 262 262 261 261 260 260 260 260 260 260 260 260 260 260 261 261 262 262 263 264 265 266 266 266 266 267 267 267 266 265 264 263 262 263 263 263 264 264 265 266 267 268 269 270 272 273 273 273 273 272 272 273 273 275 276 278 280 282 284 285 286 288 289 291 292 293 295 297 298 299 301 303 304 304 304 304 304 304 304 304 304
263 263 263 263 262 262 261 260 260 260 259 259 259 259 259 258 259 259 260 261 261 262 263 263 264 265 265 265 266 265 265 264 263 263 262 261 260 261 261 262 262 263 263 264 266 266 267 268 269 270 270 270 270 271 271 272 273 275 277 279 281 282 283 284 286 288 289 291 293 295 297 298 300 302 304 305 305 305 306 306 306 306 306 306 306
262 262 262 263 262 262 261 260 260 260 259 259 258 258 258 258 258 259 259 259 260 261 262 263 264 265 265 265 264 264 263 261 261 260 259 258 258 258 259 259 259 260 261 262 263 263 264 266 266 267 268 268 269 270 271 272 273 274 276 279 280 281 283 285 286 287 289 292 295 296 298 300 303 305 307 307 308 308 308 307 307 307 308 308 308
261 261 261 262 262 261 260 260 260 259 259 258 257 256 256 256 257 258 258 259 260 260 261 263 264 265 265 264 263 262 260 259 258 257 256 255 254 255 255 256 256 256 258 259 260 260 262 264 265 266 266 267 268 269 269 270 271 272 275 278 280 282 284 285 285 288 291 294 297 299 302 304 306 308 309 311 311 310 309 309 309 309 309 309 308
259 259 259 260 261 261 260 259 259 258 257 256 255 254 254 254 255 256 257 258 259 260 261 262 263 264 264 263 261 260 258 257 255 253 251 250 250 250 250 251 252 254 255 256 257 258 260 262 263 264 264 264 264 265 265 266 267 270 274 278 281 283 284 286 288 292 295 297 301 305 307 308 310 311 313 313 313 312 311 311 311 311 310 308 308
257 257 257 259 260 260 260 259 258 256 255 255 254 253 253 254 254 255 256 257 258 259 260 261 262 263 263 262 260 257 255 252 250 248 246 245 244 244 245 247 249 251 252 252 253 255 258 259 260 260 260 260 260 260 260 262 265 270 274 278 279 282 285 289 293 296 298 300 305 309 311 313 315 316 316 316 316 316 314 313 312 311 309 308 309
254 253 254 256 258 259 259 259 257 255 254 254 254 254 254 254 254 255 256 256 257 258 258 259 259 260 259 258 256 253 250 247 245 243 241 240 239 241 244 246 247 248 248 248 249 252 253 254 255 255 256 255 255 255 256 260 263 267 272 275 278 283 289 293 296 299 302 305 309 312 315 317 319 320 320 320 320 319 317 315 313 311 309 309 310
250 249 251 254 256 257 258 257 255 254 253 253 253 253 253 254 254 255 255 255 255 255 255 255 256 255 254 252 250 247 244 242 240 238 237 236 237 239 242 243 243 243 243 244 246 247 248 249 250 252 251 249 249 250 253 256 259 264 269 274 279 286 291 294 298 302 307 310 313 315 318 321 322 323 324 324 324 322 320 318 315 311 310 310 311
245 245 248 251 253 254 254 254 253 252 252 252 252 253 254 255 255 255 255 254 252 251 251 250 250 249 247 245 243 241 239 236 234 232 231 232 235 237 239 239 238 238 238 239 241 242 243 245 246 245 243 242 243 245 248 252 257 262 268 275 281 287 292 295 299 304 310 314 317 320 322 324 325 326 327 328 328 327 325 321 317 313 311 311 312
240 242 244 246 249 251 253 254 254 254 253 253 252 254 255 255 254 254 253 252 249 247 246 245 244 243 241 239 238 235 232 229 227 226 227 229 231 233 233 233 233 233 232 234 236 238 238 238 236 235 236 236 238 241 246 252 257 262 269 277 282 286 291 296 300 305 311 316 320 322 325 326 327 328 329 331 332 332 330 326 321 316 313 311 312
235 238 240 243 247 252 254 255 256 256 256 255 254 254 254 254 253 252 251 249 245 242 241 238 237 235 233 231 229 226 223 221 221 222 223 224 225 225 226 226 226 227 228 230 231 231 229 227 227 230 232 233 235 241 247 253 258 264 272 279 284 287 291 294 299 306 312 317 321 324 326 328 329 331 332 333 335 335 335 332 327 321 316 313 313
231 236 239 244 249 253 255 255 255 255 256 256 255 253 252 250 249 247 245 241 236 232 229 225 223 221 220 218 217 217 216 216 216 217 217 217 217 218 220 221 222 223 224 224 224 222 220 221 225 229 231 232 236 243 249 255 262 268 275 281 285 287 289 292 299 308 314 318 322 325 327 329 332 333 335 336 337 338 339 338 334 329 322 317 315
229 235 239 244 248 250 250 250 250 251 253 253 252 249 245 241 237 233 229 224 218 214 211 208 207 207 207 207 208 209 210 211 211 211 211 212 214 215 217 218 219 219 219 218 216 216 217 221 226 229 231 233 239 246 253 259 264 270 276 281 283 283 285 291 299 308 314 319 322 326 328 331 333 336 338 339 340 341 341 341 340 336 330 324 320
219 225 229 234 238 241 243 244 244 243 241 238 234 229 221 212 206 202 197 192 189 189 190 191 193 195 196 198 201 202 204 207 208 208 208 210 211 211 212 212 213 213 212 212 213 215 219 223 228 231 234 238 243 250 257 262 266 270 275 279 279 279 283 290 299 308 314 318 322 325 329 332 334 337 340 341 342 342 343 344 343 341 336 330 325
181 187 192 197 208 222 229 225 217 207 195 185 174 164 160 161 162 163 166 168 172 174 175 177 181 186 190 195 199 201 201 203 204 203 204 206 206 205 205 205 206 207 208 211 215 218 221 225 230 234 238 242 247 253 258 262 265 269 272 273 273 276 282 290 299 306 312 316 320 324 328 331 334 337 340 342 343 344 344 345 345 344 341 336 331
137 136 134 133 132 129 133 146 155 156 154 150 147 145 145 147 149 150 153 156 160 165 170 175 181 186 190 194 198 198 198 199 199 199 199 199 198 197 198 200 202 206 210 213 216 219 222 228 233 237 241 245 250 255 258 260 262 265 267 268 270 276 284 292 299 305 310 313 317 322 326 329 332 335 338 341 343 344 345 346 347 347 345 342 337
118 116 114 112 110 109 110 118 129 137 140 139 138 139 140 142 142 144 146 149 153 159 165 172 179 185 188 191 192 191 192 193 193 191 190 189 190 192 196 200 205 209 211 213 215 218 223 229 234 238 242 248 252 255 257 258 259 261 263 266 271 279 287 294 300 304 308 312 315 320 324 328 330 333 336 339 341 344 346 347 348 349 348 346 342
111 108 105 103 103 103 104 109 116 122 126 129 131 134 135 136 136 139 144 148 151 154 158 164 170 176 179 181 181 182 183 183 182 181 182 185 189 195 199 202 204 206 207 208 211 216 223 230 235 239 244 249 253 255 257 258 258 259 263 268 274 282 290 297 301 305 307 310 313 317 321 325 328 331 334 336 339 342 345 347 348 349 349 348 346
103 99 96 97 101 103 103 104 108 113 117 122 126 129 131 131 131 135 143 150 152 155 158 162 164 167 170 171 172 174 176 176 177 179 184 190 195 198 199 199 200 202 204 207 212 219 226 233 238 244 248 253 257 260 262 260 258 260 265 271 277 284 291 297 302 305 307 309 312 315 318 322 326 330 332 334 336 340 343 345 348 349 350 350 349
99 96 93 95 101 105 105 104 106 110 115 121 125 127 129 129 127 131 139 146 152 157 161 163 162 162 163 164 166 169 172 175 179 185 191 195 198 198 197 197 200 202 206 211 217 224 230 236 243 250 255 260 263 264 263 260 260 263 269 274 279 284 291 296 301 304 307 308 309 312 315 319 324 328 330 331 334 337 340 343 346 348 349 350 350
96 95 94 95 99 104 107 106 106 107 111 117 122 126 128 126 123 128 137 143 148 154 159 161 162 162 163 165 168 171 175 180 186 190 193 196 197 197 198 201 204 206 211 217 224 231 238 244 251 257 261 264 266 265 262 260 262 267 271 275 279 284 289 294 298 303 306 307 306 308 311 316 320 324 327 329 332 335 338 341 343 346 348 349 349